Precipitable_Water
1.56 1.62 1.66 1.60 1.54 1.49 1.45 1.43 1.35 1.30 1.39 1.46 1.42 1.37 1.35 1.36 1.33 1.34 1.37 1.35 1.40 1.39 1.33 1.33 1.29 1.16 1.16 1.37 1.27 0.99 0.96 0.96 0.97 0.95 1.06 1.18 1.20 1.14 1.12 1.16 1.30 1.35 1.30
1.59 1.63 1.57 1.60 1.55 1.49 1.47 1.46 1.41 1.35 1.34 1.34 1.33 1.35 1.40 1.44 1.43 1.45 1.43 1.39 1.46 1.55 1.58 1.64 1.52 1.33 1.23 1.33 1.07 0.86 0.87 0.89 0.90 0.94 1.07 1.11 1.07 1.09 1.15 1.17 1.19 1.26 1.39
1.55 1.60 1.54 1.52 1.55 1.49 1.42 1.45 1.43 1.38 1.42 1.42 1.38 1.39 1.45 1.50 1.51 1.54 1.49 1.44 1.53 1.64 1.71 1.66 1.49 1.24 1.12 1.05 0.94 0.92 0.91 0.87 0.88 0.95 0.97 1.00 1.00 0.97 1.02 1.04 1.07 1.10 1.11
1.56 1.57 1.54 1.53 1.53 1.52 1.46 1.37 1.40 1.34 1.33 1.39 1.43 1.41 1.43 1.49 1.54 1.56 1.46 1.49 1.64 1.66 1.68 1.50 1.31 1.07 1.01 0.95 0.95 0.94 0.92 0.90 0.88 0.82 0.83 0.85 0.86 0.89 0.92 0.91 0.93 0.96 0.99
1.58 1.61 1.57 1.54 1.55 1.56 1.54 1.43 1.29 1.32 1.30 1.28 1.33 1.42 1.35 1.46 1.58 1.59 1.51 1.59 1.66 1.55 1.55 1.36 1.08 0.99 0.97 0.93 0.94 0.94 0.94 0.89 0.89 0.87 0.81 0.85 0.89 0.87 0.84 0.83 0.83 0.84 0.85
1.58 1.64 1.64 1.59 1.56 1.58 1.54 1.45 1.34 1.20 1.25 1.23 1.25 1.44 1.39 1.41 1.55 1.62 1.56 1.61 1.59 1.44 1.43 1.19 1.01 1.01 0.96 0.92 0.94 0.97 0.98 0.96 0.95 0.92 0.87 0.88 0.88 0.89 0.88 0.88 0.88 0.88 0.88
1.57 1.65 1.67 1.67 1.64 1.62 1.56 1.48 1.38 1.23 1.18 1.25 1.26 1.34 1.46 1.34 1.61 1.64 1.64 1.64 1.50 1.31 1.31 1.12 1.00 0.96 0.90 0.86 0.94 0.98 0.98 0.99 0.98 0.90 0.87 0.88 0.90 0.92 0.92 0.92 0.90 0.90 0.93
1.52 1.59 1.68 1.74 1.73 1.64 1.58 1.50 1.44 1.37 1.30 1.26 1.31 1.29 1.41 1.36 1.67 1.72 1.69 1.58 1.44 1.30 1.18 1.04 0.94 0.85 0.81 0.88 0.98 0.98 1.00 1.02 1.02 0.92 0.87 0.89 0.94 0.95 0.94 0.92 0.92 0.93 0.97
1.66 1.63 1.66 1.73 1.73 1.63 1.53 1.49 1.49 1.50 1.47 1.25 1.41 1.42 1.45 1.49 1.77 1.78 1.72 1.60 1.32 1.22 1.14 1.03 0.91 0.81 0.80 0.91 0.96 0.96 0.96 1.02 1.00 0.97 0.88 0.90 0.95 0.96 0.93 0.90 0.93 0.97 0.98
1.61 1.69 1.76 1.82 1.74 1.69 1.60 1.50 1.47 1.50 1.60 1.48 1.41 1.51 1.59 1.66 1.81 1.75 1.72 1.57 1.26 1.19 1.07 1.05 0.93 0.83 0.80 0.86 0.92 0.93 0.92 0.98 0.98 0.98 0.94 0.91 0.96 0.95 0.91 0.90 0.94 0.98 0.99
1.47 1.53 1.67 1.74 1.78 1.72 1.68 1.60 1.48 1.36 1.44 1.61 1.48 1.58 1.72 1.77 1.80 1.77 1.72 1.57 1.30 1.15 1.19 1.07 0.97 0.91 0.84 0.80 0.84 0.90 0.91 0.89 0.91 0.95 0.94 0.90 0.94 0.94 0.91 0.91 0.95 0.99 0.99
1.26 1.33 1.53 1.68 1.68 1.73 1.73 1.65 1.59 1.56 1.35 1.40 1.62 1.55 1.68 1.84 1.79 1.72 1.67 1.53 1.34 1.34 1.21 1.12 1.04 0.96 0.89 0.83 0.81 0.87 0.87 0.87 0.87 0.91 0.92 0.92 0.94 0.95 0.92 0.95 0.98 1.00 0.98
1.14 1.31 1.51 1.61 1.67 1.68 1.66 1.66 1.53 1.52 1.51 1.38 1.45 1.64 1.67 1.77 1.78 1.72 1.67 1.60 1.43 1.33 1.16 1.13 1.07 0.98 0.86 0.82 0.81 0.80 0.84 0.84 0.82 0.85 0.89 0.91 0.91 0.97 0.98 1.01 1.04 1.03 1.00
1.10 1.25 1.42 1.55 1.58 1.58 1.57 1.54 1.47 1.41 1.42 1.47 1.41 1.47 1.69 1.75 1.73 1.72 1.66 1.62 1.42 1.28 1.17 1.07 1.01 0.93 0.87 0.86 0.85 0.82 0.85 0.85 0.82 0.83 0.84 0.91 0.93 0.95 0.98 1.04 1.09 1.09 1.03
1.07 1.19 1.33 1.48 1.51 1.55 1.51 1.45 1.47 1.38 1.35 1.46 1.44 1.47 1.55 1.70 1.74 1.78 1.70 1.64 1.36 1.27 1.21 1.10 1.00 0.91 0.86 0.89 0.92 0.89 0.87 0.86 0.83 0.81 0.86 0.94 0.97 0.97 1.01 1.07 1.08 1.06 1.04
1.00 1.06 1.18 1.27 1.38 1.50 1.47 1.45 1.41 1.37 1.31 1.34 1.46 1.49 1.59 1.62 1.75 1.89 1.81 1.64 1.36 1.25 1.29 1.17 1.03 0.88 0.82 0.89 0.88 0.88 0.88 0.86 0.85 0.88 0.91 0.98 1.04 1.05 1.06 1.08 1.08 1.08 1.09
0.95 1.03 1.06 1.12 1.24 1.35 1.47 1.45 1.37 1.37 1.28 1.32 1.43 1.51 1.52 1.60 1.64 1.67 1.67 1.50 1.31 1.27 1.29 1.22 1.05 0.93 0.90 0.93 0.90 0.88 0.89 0.90 0.89 0.92 1.00 1.02 1.08 1.11 1.10 1.10 1.11 1.15 1.16
0.92 1.00 1.05 1.07 1.16 1.29 1.35 1.36 1.36 1.34 1.31 1.36 1.48 1.53 1.52 1.49 1.52 1.63 1.60 1.45 1.44 1.35 1.26 1.17 1.01 0.93 0.94 0.92 0.88 0.89 0.91 0.97 0.96 1.04 1.07 1.10 1.14 1.16 1.14 1.12 1.15 1.19 1.19
0.93 0.97 1.05 1.09 1.11 1.12 1.39 1.42 1.38 1.31 1.33 1.38 1.43 1.48 1.43 1.43 1.38 1.42 1.64 1.62 1.38 1.23 1.15 1.06 1.01 0.97 0.92 0.91 0.91 0.93 0.95 0.99 1.04 1.06 1.09 1.16 1.21 1.25 1.20 1.14 1.17 1.18 1.15
0.96 0.93 1.03 1.08 1.14 1.20 1.27 1.38 1.35 1.29 1.31 1.38 1.41 1.39 1.41 1.38 1.45 1.30 1.33 1.50 1.51 1.11 1.14 1.05 0.96 0.99 0.93 0.92 0.94 0.96 1.03 1.07 1.09 1.11 1.14 1.22 1.30 1.31 1.23 1.19 1.19 1.17 1.08
0.93 0.81 0.84 1.02 1.11 1.15 1.18 1.26 1.25 1.22 1.30 1.35 1.39 1.56 1.49 1.46 1.49 1.47 1.22 1.27 1.57 1.35 1.10 1.03 1.01 0.95 0.94 1.00 0.95 0.95 1.03 1.09 1.10 1.13 1.22 1.18 1.32 1.27 1.28 1.22 1.19 1.13 1.04
0.74 0.79 0.80 0.95 1.09 1.12 1.16 1.20 1.29 1.28 1.32 1.38 1.47 1.55 1.58 1.56 1.53 1.44 1.31 1.13 1.24 1.28 1.17 1.11 1.02 0.97 1.00 1.07 0.95 0.99 0.89 0.98 1.09 1.20 1.24 1.25 1.28 1.31 1.25 1.24 1.22 1.12 1.07
0.76 0.83 0.87 1.04 1.09 1.13 1.19 1.25 1.24 1.33 1.34 1.37 1.43 1.54 1.58 1.65 1.56 1.42 1.32 1.23 1.23 1.20 1.07 1.08 1.10 1.08 0.98 1.08 1.14 1.06 0.96 0.89 1.01 1.17 1.23 1.30 1.33 1.31 1.37 1.32 1.26 1.12 1.16
0.78 0.83 0.89 1.07 1.15 1.18 1.26 1.18 1.14 1.17 1.14 1.25 1.34 1.47 1.58 1.64 1.60 1.54 1.46 1.32 1.19 1.15 1.15 1.15 1.17 1.15 1.11 1.08 1.24 1.34 1.29 1.20 1.01 0.97 1.23 1.27 1.34 1.32 1.35 1.37 1.29 1.20 1.22
0.83 0.83 0.93 1.03 1.10 1.19 1.26 1.23 1.16 1.16 1.19 1.27 1.38 1.40 1.48 1.58 1.61 1.56 1.56 1.55 1.44 1.35 1.31 1.29 1.27 1.24 1.27 1.24 1.26 1.26 1.32 1.36 1.34 1.22 1.05 1.14 1.26 1.30 1.40 1.37 1.34 1.24 1.24
0.86 0.89 0.95 1.02 1.07 1.15 1.21 1.23 1.21 1.22 1.25 1.22 1.31 1.35 1.40 1.48 1.59 1.57 1.52 1.62 1.61 1.51 1.43 1.47 1.41 1.39 1.42 1.34 1.38 1.34 1.27 1.20 1.21 1.21 1.14 1.15 1.15 1.23 1.30 1.33 1.29 1.27 1.28
Wind_Speed
16 20 19 18 18 17 16 15 14 14 13 12 11 10 10 10 9 9 8 8 8 7 7 6 4 4 5 6 6 6 6 6 6 6 7 7 7 7 8 8 9 8 9
15 17 20 21 19 18 18 17 16 15 15 14 13 12 11 11 11 10 9 9 9 8 7 6 5 5 5 6 6 7 7 7 6 6 6 6 6 6 6 7 8 8 9
16 17 18 21 21 21 19 19 18 17 16 15 15 14 13 13 12 11 11 10 10 9 8 7 5 5 5 6 6 6 6 6 6 6 5 5 5 5 5 5 6 6 7
17 17 17 20 22 22 21 20 20 19 18 18 17 16 15 15 14 13 12 12 11 11 9 8 6 6 6 6 6 5 5 5 5 5 4 4 4 4 4 4 5 5 6
17 17 17 18 20 21 23 22 22 21 20 20 19 18 18 17 16 15 14 13 13 12 11 9 8 8 7 6 6 5 5 6 5 4 4 3 3 3 3 3 4 5 5
18 18 18 18 19 21 22 24 23 23 22 22 21 20 20 19 19 17 16 15 14 13 12 10 9 9 8 7 6 5 5 5 4 3 3 2 2 2 2 2 3 4 5
20 19 20 20 19 19 20 22 24 24 24 23 23 23 22 21 21 19 18 17 15 14 14 12 12 10 9 8 7 5 4 4 4 3 2 2 1 1 1 1 2 3 4
23 23 21 21 22 21 21 21 22 24 25 25 25 25 24 23 23 21 20 18 16 16 15 14 13 12 11 10 8 6 5 5 3 3 3 2 2 1 1 1 1 3 3
24 24 24 23 23 23 23 22 22 23 25 26 26 26 25 25 25 23 21 20 18 17 17 16 15 13 12 11 9 7 6 6 5 4 3 3 3 3 2 2 3 3 4
23 24 24 25 24 24 23 24 24 24 24 26 27 27 27 27 27 25 23 21 20 20 19 18 16 15 14 13 11 9 8 7 6 5 5 5 5 4 4 4 4 5 5
23 24 25 25 25 26 26 25 24 25 26 26 28 29 28 29 28 27 25 23 22 21 21 20 18 16 15 14 13 11 10 9 8 8 7 6 6 6 6 6 6 6 6
26 25 26 25 25 24 24 24 25 25 26 28 29 31 31 31 30 28 27 25 24 23 22 21 20 18 17 15 14 13 12 11 10 10 9 9 9 8 8 8 8 8 8
28 26 25 25 24 24 24 24 24 28 28 29 30 31 33 33 32 30 29 27 26 25 24 23 22 20 18 17 16 15 14 13 13 12 12 11 10 10 10 10 9 9 9
29 28 27 27 27 27 26 25 24 25 29 30 31 33 33 34 35 33 32 30 29 28 27 25 23 22 20 19 18 17 16 15 15 14 14 13 12 12 12 12 12 11 11
30 30 30 28 29 29 28 27 25 23 27 31 34 35 36 35 36 36 35 33 32 30 29 27 25 24 23 22 20 19 18 17 17 16 16 15 14 14 14 13 13 13 13
32 33 32 32 31 31 32 31 30 28 29 30 38 36 37 38 35 33 34 35 34 33 31 29 27 26 25 23 22 21 20 19 19 18 18 17 16 16 15 15 15 15 15
35 35 35 34 32 33 33 33 32 30 31 30 37 38 40 40 39 34 38 36 36 35 34 32 30 28 26 25 24 23 22 21 21 20 19 18 18 18 17 17 16 16 16
35 35 35 35 33 31 30 30 30 30 30 32 33 36 38 41 42 41 36 35 37 36 35 34 32 30 28 27 25 24 23 23 22 22 21 20 20 19 19 19 18 18 18
36 34 33 33 33 32 28 29 29 28 28 31 33 35 36 41 42 43 42 39 38 39 37 36 34 32 30 29 27 26 25 25 25 24 23 23 23 22 21 21 21 20 20
36 33 34 33 31 29 28 28 28 27 28 30 34 35 34 34 36 45 43 43 40 40 39 38 36 34 32 30 29 28 27 27 26 26 25 25 24 24 23 22 22 22 22
36 34 33 33 33 31 28 28 29 27 27 29 33 38 36 34 35 36 42 44 43 42 41 39 37 36 34 32 31 30 30 29 28 28 27 27 27 25 25 24 23 23 23
34 34 32 33 33 33 31 30 29 28 29 30 31 35 37 37 34 34 37 41 43 42 41 40 38 36 35 33 31 29 29 29 30 30 30 29 29 27 27 26 26 25 25
30 30 30 31 32 31 33 31 29 28 27 26 30 34 37 39 35 32 34 37 41 41 40 39 39 37 35 35 33 30 29 30 28 30 31 30 29 29 29 29 28 26 25
27 27 27 27 28 29 30 30 31 28 28 25 31 32 32 35 36 35 34 36 38 40 40 40 39 38 36 35 35 35 32 29 28 27 29 29 29 29 28 28 27 26 25
24 25 25 25 24 24 27 29 31 31 29 28 27 33 35 31 35 37 37 37 37 36 37 38 38 39 39 37 35 33 32 28 25 25 25 26 28 28 29 29 30 29 27
22 23 23 22 22 23 22 23 27 27 26 27 29 30 36 35 33 35 38 36 37 37 37 37 36 36 35 34 35 33 35 33 32 29 27 29 29 29 31 31 29 28 29
Wind_Direction
231 221 222 220 219 218 218 217 216 216 215 216 215 211 208 204 200 196 193 188 180 170 162 153 140 129 123 123 117 118 121 122 120 116 106 96 94 83 78 72 65 62 60
225 221 221 223 222 220 219 220 220 218 218 219 219 216 212 208 204 200 198 195 190 184 179 174 153 141 135 128 121 120 119 119 119 118 113 103 93 87 79 71 66 63 60
224 225 226 224 224 223 221 221 222 221 221 221 220 219 217 212 209 207 204 200 196 193 185 175 168 158 150 140 131 126 124 120 120 119 115 108 97 87 80 70 61 57 52
227 227 229 226 226 225 224 224 225 224 223 224 224 222 220 218 215 211 208 204 202 195 190 189 185 174 161 151 142 136 136 137 128 121 119 109 100 91 82 67 58 49 43
230 229 230 227 225 226 226 226 227 227 226 226 226 225 223 220 217 214 210 209 203 200 200 197 193 182 172 163 155 143 137 138 135 128 123 115 104 94 83 68 55 45 36
231 232 228 229 227 228 229 229 229 229 229 228 227 226 224 222 218 216 213 209 207 209 206 204 196 190 185 179 169 160 152 153 151 144 139 130 118 106 88 67 51 39 29
234 233 230 228 228 229 230 231 231 231 230 228 227 225 225 222 219 216 214 212 213 212 211 208 201 198 196 190 184 181 180 173 168 169 168 164 155 140 112 57 31 20 17
236 234 233 230 231 231 233 234 233 233 232 230 227 226 224 221 219 215 213 214 216 215 212 209 207 205 202 198 197 197 195 190 193 194 195 197 202 211 229 295 337 348 352
238 236 234 233 233 234 236 235 235 235 233 229 227 225 224 221 218 216 215 217 220 218 213 211 211 210 208 206 208 208 209 207 212 215 219 226 231 242 256 275 296 314 324
237 236 235 235 236 235 236 236 237 236 235 231 228 226 223 220 218 217 218 221 221 218 216 213 213 213 212 213 216 218 221 222 225 230 235 240 246 251 260 271 283 297 308
237 238 237 236 235 237 238 238 237 238 235 233 230 226 223 220 219 219 221 222 222 219 215 216 216 217 217 220 222 226 227 232 234 237 242 248 253 256 261 269 277 287 296
238 240 238 236 236 236 234 236 241 240 238 234 231 226 223 220 220 222 222 222 220 218 217 217 219 220 222 225 227 230 233 238 242 242 247 254 257 258 262 267 274 281 287
239 237 234 234 232 229 239 241 245 242 239 235 232 228 225 224 223 224 224 223 221 220 219 219 221 223 226 228 231 234 238 242 246 244 248 253 257 258 260 265 271 277 281
239 236 236 232 234 240 241 243 246 245 241 236 231 229 227 226 226 227 225 223 223 222 221 222 224 227 229 231 234 238 241 245 246 245 248 252 258 259 260 264 269 274 278
238 236 235 236 238 239 241 243 243 250 243 236 233 232 229 227 228 228 228 226 223 222 223 224 227 229 232 234 238 241 244 246 248 247 247 251 259 259 260 263 268 272 276
239 237 237 239 240 240 242 245 246 250 248 244 234 234 230 227 226 224 225 225 225 223 225 226 229 231 234 236 241 243 245 247 247 247 248 253 257 258 260 262 266 270 275
240 240 238 239 241 242 243 245 247 251 247 246 236 233 230 227 226 228 226 227 226 227 226 228 231 233 235 238 242 244 246 247 247 249 249 252 257 258 259 261 264 269 275
239 238 237 237 238 240 242 243 246 250 250 245 236 232 228 228 228 228 226 228 224 225 227 229 232 234 237 239 242 245 247 248 248 249 249 253 258 257 258 260 264 269 274
237 235 234 235 238 239 239 243 245 249 248 241 235 229 233 228 229 230 228 230 231 230 229 231 234 235 237 240 243 246 248 249 250 250 250 254 257 256 259 260 263 269 273
235 236 234 235 235 235 239 240 243 247 249 245 238 229 230 227 231 230 229 230 232 229 230 232 233 235 238 240 243 247 248 250 250 251 253 255 257 256 258 259 263 269 272
233 235 234 232 233 235 238 241 243 247 250 248 240 229 227 229 232 231 229 230 231 230 230 231 234 235 237 241 245 248 250 250 251 252 255 256 257 256 256 259 263 268 271
232 233 233 232 232 236 238 242 245 247 250 252 240 230 230 233 232 234 231 229 228 229 231 233 233 236 239 241 244 248 251 252 253 253 255 260 260 256 255 259 263 266 269
228 231 232 231 234 238 237 241 247 249 250 250 241 235 236 231 230 233 230 228 227 229 230 231 233 235 239 241 243 247 251 254 255 255 256 260 256 255 257 259 261 264 266
227 230 228 230 234 236 239 241 243 244 247 253 244 239 234 229 231 231 232 228 227 228 230 232 234 237 239 242 245 248 251 255 255 259 258 257 255 255 258 258 257 259 264
225 225 225 228 233 236 239 242 242 246 246 250 248 239 233 233 232 232 232 227 227 228 232 233 235 237 240 244 247 248 251 250 254 255 256 256 256 259 257 257 257 261 263
222 221 223 225 231 235 240 245 240 242 242 250 248 242 233 233 232 231 229 228 227 230 233 235 236 237 241 243 247 246 246 251 253 255 259 260 254 257 261 253 255 261 262